Regional Weather Roundup
Issued by NWS

Home | Current Version | Previous Version | Text Only | Print | Product List | Glossary Off
Versions: 1 2 3 4 5 6 7 8 9 10 11 12 13 14 15 16 17 18 19 20 21 22 23 24 25 26 27 28 29 30 31 32 33 34 35 36 37 38 39 40 41 42 43 44 45 46 47 48 49 50

000
ASUS43 KDTX 242301
RWRMI
MICHIGAN HOURLY REGIONAL WEATHER ROUNDUP
NATIONAL WEATHER SERVICE DETROIT/PONTIAC MI
700 PM EDT TUE MAY 24 2016

NOTE: "FAIR" INDICATES FEW OR NO CLOUDS BELOW 12,000 FEET WITH NO
SIGNIFICANT WEATHER AND/OR OBSTRUCTION TO VISIBILITY.

MIZ047>049-052>055-059>063-066>070-074>076-081>083-250000-
SOUTHEAST LOWER MICHIGAN

CITY           SKY/WX    TMP DP  RH WIND       PRES   REMARKS
ADRIAN         SUNNY     82  48  30 SW7       30.00R
ALMA           SUNNY     81  45  28 W12G17    29.96S
ANN ARBOR      MOSUNNY   81  52  36 SW9       29.99R
BAD AXE        SUNNY     81  45  28 SW10      29.95R
CARO           SUNNY     82  51  33 W8        29.95R
DETROIT CITY   SUNNY     81  48  31 SW12      29.97S
DETROIT        PTSUNNY   84  48  28 SW10      29.98S
FLINT          SUNNY     85  47  26 W12       29.97R
GROSSE ILE     SUNNY     70  55  60 S6        29.98R
HILLSDALE      SUNNY     82  35  18 W9G16     30.02R
HOWELL         MOSUNNY   81  47  30 W9        29.98S

CITY           SKY/WX    TMP DP  RH WIND       PRES   REMARKS
JACKSON        MOSUNNY   82  47  29 SW9       30.00R
LAMBERTVILLE   SUNNY     83  45  26 SW8       30.00S
LANSING        SUNNY     83  48  29 W15       29.98R
LAPEER         FAIR      83  42  23 W10       29.97R
MASON          MOSUNNY   82  48  30 W6        29.99R
MONROE         SUNNY     83  49  30 SW10G16   29.98R
PONTIAC        MOSUNNY   83  47  28 W15       29.97R
PORT HOPE        N/A     76  51  41 MISG      29.91F
PORT HURON     SUNNY     79  50  36 S10       29.97R
TRI CITIES     SUNNY     84  49  29 W12       29.95R
MIDLAND        FAIR      83  48  28 SW8       29.94R
TROY           SUNNY     85  44  24 SW9       29.99R
SAGINAW HB     SUNNY     82  43  24 SW10G20   29.95R
$$
MIZ043>046-050>051-056>058-064>065-071>073-077>080-250000-
SOUTHWEST LOWER MICHIGAN

CITY           SKY/WX    TMP DP  RH WIND       PRES   REMARKS
BATTLE CREEK   SUNNY     81  48  31 SW8       30.00R
BENTON HARBOR  SUNNY     83  50  31 W5        29.96S
BIG RAPIDS     CLOUDY    77  42  27 SW8       29.96S
COLDWATER      MOSUNNY   80  46  29 SW7       30.00S
FREMONT        FAIR      78  51  38 SW6       29.96S
HOLLAND        SUNNY     82  50  32 W9        29.97F
GRAND RAPIDS   MOSUNNY   84  50  30 W15       29.98S
IONIA          FAIR      82  47  29 W10       29.96S
KALAMAZOO      SUNNY     83  48  29 S8        29.98S
LUDINGTON      PTSUNNY   68  54  60 S8G16     29.95F
MARSHALL       MOSUNNY   82  47  29 S6        29.98S
MOUNT PLEASANT SUNNY     81  46  29 W14G24    29.96R
MUSKEGON       CLOUDY    79  48  33 SW10      29.96S
SOUTH HAVEN    SUNNY     83  45  26 W7        29.97S
$$
MIZ016>042-250000-
NORTHERN LOWER MICHIGAN

CITY           SKY/WX    TMP DP  RH WIND       PRES   REMARKS
ALPENA         SUNNY     82  51  34 N6        29.89S
BEAVER ISLAND  CLOUDY    58  49  70 W12G18    29.95R
BELLAIRE       CLOUDY    77  42  28 CALM      29.92R
CADILLAC       CLOUDY    78  40  25 SW12      29.96
CHARLEVOIX     CLOUDY    57  48  71 NW3       29.96F
FRANKFORT      CLOUDY    69  55  60 SW15G24   29.93F
GAYLORD        CLOUDY    80  37  21 W12       29.94R
GRAYLING       CLOUDY    81  40  23 W12G17    29.94R
HARBOR SPRINGS CLOUDY    67  49  52 SW5       29.93R
HOUGHTON LAKE  CLOUDY    79  43  27 SW14      29.95R
MANISTEE       CLOUDY    72  52  49 SW10G18   29.95S
OSCODA         SUNNY     86  44  22 SW10      29.89S
PELLSTON       CLOUDY    64  47  53 NW10      29.94R
ROGERS CITY    CLOUDY    58  49  72 N7        29.93R
TRAVERSE CITY  CLOUDY    80  41  24 SW12      29.89S
$$
MIZ007>008-015-250000-
EASTERN UPPER MICHIGAN

CITY           SKY/WX    TMP DP  RH WIND       PRES   REMARKS
KINROSS          N/A     61  57  88 NW9       29.94R
MACKINAC ISLAN CLOUDY    61  49  65 W5        29.93R
NEWBERRY       CLOUDY    61  60  97 N6        29.94S FOG
S. S. MARIE    RAIN      61  57  87 NW9       29.94S FOG
MUNISING         N/A     63  61  93 VRB5      29.90S
$$
MIZ004>006-011>014-085-250000-
CENTRAL UPPER MICHIGAN

CITY           SKY/WX    TMP DP  RH WIND       PRES   REMARKS
MANISTIQUE     LGT RAIN  55  54  97 E3        29.93F
ESCANABA       CLOUDY    61  57  88 SE5       29.92R
MENOMINEE      MOSUNNY   65  57  75 E13       29.91R
SAWYER-GWINN   MOSUNNY   64  59  82 SE5       29.93R
$$
MIZ001>003-009>011-084-250000-
WESTERN UPPER MICHIGAN

CITY           SKY/WX    TMP DP  RH WIND       PRES   REMARKS
IRON MOUNTAIN  CLOUDY    73  63  70 S7        29.89S
HOUGHTON       FOG       52  51  97 E10       29.94R VSB 1/4
COPPER HARBOR    N/A     61  54  77 S3        29.94R
$$

ABBREVIATIONS USED IN REMARKS
   TC - TEMPERATURE IN CELSIUS
  WCI - WIND CHILL INDEX
   HX - HEAT INDEX
  VSB - VISIBILITY




USA.gov is the U.S. government's official web portal to all federal, state and local government web resources and services.